Flag for Liechtenstein Weather past 2 weeks in Vaduz, Liechtenstein

Now
68 °F

Mild.


Feels Like: 68 °F
Forecast: 57 / 84 °F
Wind: 5 mph from South

Location: Vaduz

Current Time: Sep 18, 2014 at 4:12:21 AM

Latest Report: Sep 18, 2014 at 3:00 AM


Visibility: N/A

Pressure: 29.87 "Hg

Humidity: 47%

Dew point: 47 °F

Location of VaduzLocation

Historic Weather in Vaduz — Graph

°F

Vaduz temperature yesterday

Maximum temperature yesterday: 76 °F (at 2:00 PM)
Minimum temperature yesterday: 59 °F (at 7:00 AM)
Average temperature yesterday: 66 °F

Past Weeks' High & Low Weather Summary

 TemperatureHumidityPressure
High77 °F (Sep 7, 4:00 PM)98% (Sep 5, 2:00 AM)30.16 "Hg (Sep 5, 2:00 AM)
Low51 °F (Sep 4, 7:00 AM)48% (Sep 18, 2:00 AM)29.80 "Hg (Sep 17, 4:00 PM)
Average62 °F80%29.99 "Hg
* Reported Sep 3 2:00 AM — Sep 18 2:00 AM, Vaduz, Weather by CustomWeather, © 2014

Note: Actual official high and low records may vary slightly from our data, if they occured in-between our weather recording intervals... More about our weather records

Advertising

Vaduz weather history for previous 24 hours

 ConditionsComfort  
Time TempWeatherWind HumidityBarometerVisibility
2:00 AM
Sep 18
69 °FFog.6 mph48%29.86 "Hg5 mi
1:00 AM68 °FMild.3 mph50%29.87 "HgN/A
12:00 AM64 °FMild.2 mph60%29.88 "HgN/A
11:00 PM
Sep 17
65 °FFog.3 mph63%29.88 "Hg5 mi
10:00 PM61 °FCool.2 mph86%29.88 "HgN/A
9:00 PM65 °FMild.2 mph80%29.86 "HgN/A
8:00 PM66 °FFog.2 mph81%29.85 "Hg6 mi
7:00 PM69 °FMild.No wind74%29.84 "HgN/A
6:00 PM72 °FMild.5 mph60%29.82 "HgN/A
5:00 PM73 °FMild.7 mph55%29.81 "HgN/A
4:00 PM74 °FMild.7 mph58%29.80 "HgN/A
3:00 PM75 °FMild.7 mph55%29.80 "HgN/A
2:00 PM76 °FMild.5 mph52%29.83 "HgN/A
1:00 PM73 °FMild.6 mph53%29.84 "HgN/A
12:00 PM72 °FMild.1 mph51%29.86 "HgN/A
11:00 AM69 °FMild.3 mph55%29.89 "HgN/A
10:00 AM66 °FMild.5 mph59%29.91 "HgN/A
9:00 AM62 °FCool.5 mph63%29.93 "HgN/A
8:00 AM60 °FPassing clouds.5 mph68%29.93 "Hg9 mi
7:00 AM59 °FCool.5 mph72%29.94 "HgN/A
6:00 AM62 °FCool.7 mph64%29.93 "HgN/A
5:00 AM62 °FFog.5 mph66%29.93 "Hg5 mi
4:00 AM62 °FCool.3 mph69%29.93 "HgN/A
Weather by CustomWeather, © 2014

See weather overviewHow to use our weather pages